Location: Dackenheim
(49.5215°N, 8.1854°E)
Time: 02:13:54
(UTC+00:00)

Tiangong - Visible Passes

Search period start: 22 January 2026 00:00
Search period end: 01 February 2026 00:00
Orbit: 378 x 392 km, 41.5° (Epoch: 21 January)

Date Brightness Start Highest point End Pass type
(mag) Time Alt. Az. Time Alt. Az. Time Alt. Az.
22 Jan 0.9 04:31:09 13° SE 04:31:09 13° SE 04:31:59 10° SE visible
22 Jan 0.1 06:04:03 10° SW 06:06:26 19° S 06:08:50 10° SE visible
23 Jan 0.0 05:06:42 18° S 05:07:05 19° S 05:09:24 10° SE visible
24 Jan 0.1 05:42:08 13° SW 05:43:52 18° S 05:46:10 10° SE visible
25 Jan 0.3 04:45:16 17° SSE 04:45:16 17° SSE 04:46:45 10° SE visible
25 Jan 0.5 06:19:01 10° SW 06:20:32 13° SSW 06:22:04 10° S visible
26 Jan 0.1 05:20:33 15° SSW 05:21:02 16° SSW 05:23:04 10° SSE visible
27 Jan 1.0 04:23:34 11° SE 04:23:34 11° SE 04:23:41 10° SE visible
28 Jan 0.6 04:58:46 12° S 04:58:46 12° S 04:59:22 10° S visible
